Simultaneous Nadir Overpasses (SNOs) Predictions

Prediction of SNOs between GOES-17 and METOP-C Satellite Orbit:

Table of predicted SNOs for the next 14.0 days since TLE Epoch: 10/2/2020
Index Date Time (GOES-17) GOES-17 Lat,Lon METOP-C Lat,Lon Distance(km) Time Diff (sec)
1 10/03/2020 06:41:34 0.04,-137.20 0.05,-137.26 6.19 80
2 10/05/2020 18:39:44 -0.04,-137.21 -0.12,-136.82 44.77 80
3 10/07/2020 06:58:43 0.04,-137.20 -0.93,-141.41 479.55 80
4 10/08/2020 06:36:40 0.04,-137.20 0.22,-136.42 89.28 4
5 10/09/2020 18:54:14 -0.04,-137.19 0.80,-140.97 431.12 80
6 10/10/2020 18:36:14 -0.03,-137.18 -0.29,-135.97 137.24 80
7 10/12/2020 06:55:13 0.03,-137.16 -0.74,-140.57 388.32 80
8 10/13/2020 06:31:52 0.03,-137.15 0.35,-135.57 179.65 80
9 10/14/2020 18:50:44 -0.03,-137.13 0.62,-140.13 342.05 80
10 10/15/2020 18:32:43 -0.03,-137.11 -0.47,-135.13 225.61 80
